Terminal Aerodrome Forecast
Issued by NWS

Home | Current Version | Previous Version | Text Only | Print | Product List | Glossary On
Versions: 1 2 3 4 5 6 7 8 9 10 11 12 13
000
FTAK31 PAJN 300500
TAFAGY
TAF
PAGY 300540Z 3006/0106 21013KT P6SM OVC070
     FM301000 21006KT P6SM VCSH OVC080
     FM301500 21008KT P6SM BKN100
     FM302100 21014KT P6SM VCSH BKN060 OVC080
      AMD LTD TO CLD VIS AND WIND=

USA.gov is the U.S. government's official web portal to all federal, state and local government web resources and services.